Time,TemperatureF,DewpointF,PressureIn,WindDirection,WindDirectionDegrees,WindSpeedMPH,WindSpeedGustMPH,Humidity,HourlyPrecipIn,Conditions,Clouds,dailyrainin,SoftwareType,DateUTC
2013-10-06 00:22:00,42.0,29.0,-100.00,WNW,293,4.0,-999.0,61,-99.99,,,-99.99,,2013-10-06 05:22:00,
2013-10-06 00:52:00,42.0,29.0,-100.00,NW,315,5.0,-999.0,61,-99.99,,,-99.99,,2013-10-06 05:52:00,
2013-10-06 01:22:00,41.0,30.0,-100.00,WNW,293,6.0,-999.0,64,-99.99,,,-99.99,,2013-10-06 06:22:00,
2013-10-06 01:52:00,42.0,31.0,-100.00,NW,315,6.0,-999.0,65,-99.99,,,-99.99,,2013-10-06 06:52:00,
2013-10-06 02:22:00,42.0,31.0,-100.00,WNW,293,6.0,-999.0,67,-99.99,,,-99.99,,2013-10-06 07:22:00,
2013-10-06 02:52:00,42.0,32.0,-100.00,NW,315,5.0,-999.0,67,-99.99,,,-99.99,,2013-10-06 07:52:00,
2013-10-06 03:22:00,42.0,32.0,-100.00,NW,315,6.0,-999.0,67,-99.99,,,-99.99,,2013-10-06 08:22:00,
2013-10-06 03:52:00,42.0,32.0,-100.00,NW,315,6.0,-999.0,68,-99.99,,,-99.99,,2013-10-06 08:52:00,
2013-10-06 04:22:00,42.0,33.0,-100.00,NW,315,5.0,-999.0,70,-99.99,,,-99.99,,2013-10-06 09:22:00,
2013-10-06 04:53:00,42.0,33.0,-100.00,NW,315,6.0,-999.0,70,-99.99,,,-99.99,,2013-10-06 09:53:00,
2013-10-06 05:23:00,42.0,33.0,-100.00,NW,315,5.0,-999.0,71,-99.99,,,-99.99,,2013-10-06 10:23:00,
2013-10-06 05:53:00,42.0,34.0,-100.00,NW,315,5.0,-999.0,72,-99.99,,,-99.99,,2013-10-06 10:53:00,
2013-10-06 06:21:00,43.0,34.0,-100.00,NW,315,5.0,-999.0,72,-99.99,,,-99.99,,2013-10-06 11:21:00,
2013-10-06 06:52:00,42.0,35.0,-100.00,NW,315,5.0,-999.0,76,-99.99,,,-99.99,,2013-10-06 11:52:00,
2013-10-06 07:22:00,42.0,35.0,-100.00,NW,315,5.0,-999.0,76,-99.99,,,-99.99,,2013-10-06 12:22:00,
2013-10-06 07:52:00,42.0,35.0,-100.00,NW,315,4.0,-999.0,76,-99.99,,,-99.99,,2013-10-06 12:52:00,
2013-10-06 08:21:00,43.0,36.0,-100.00,NW,315,4.0,-999.0,76,-99.99,,,-99.99,,2013-10-06 13:21:00,
2013-10-06 08:52:00,43.0,36.0,-100.00,NW,315,4.0,-999.0,75,-99.99,,,-99.99,,2013-10-06 13:52:00,
2013-10-06 09:22:00,44.0,36.0,-100.00,NW,315,4.0,-999.0,74,-99.99,,,-99.99,,2013-10-06 14:22:00,
2013-10-06 09:52:00,45.0,37.0,-100.00,NW,315,6.0,-999.0,72,-99.99,,,-99.99,,2013-10-06 14:52:00,
2013-10-06 10:22:00,47.0,36.0,-100.00,NNW,338,6.0,-999.0,67,-99.99,,,-99.99,,2013-10-06 15:22:00,
2013-10-06 10:53:00,47.0,37.0,-100.00,NW,315,5.0,-999.0,67,-99.99,,,-99.99,,2013-10-06 15:53:00,
2013-10-06 11:23:00,48.0,37.0,-100.00,NW,315,6.0,-999.0,66,-99.99,,,-99.99,,2013-10-06 16:23:00,
2013-10-06 11:53:00,48.0,38.0,-100.00,NW,315,6.0,-999.0,67,-99.99,,,-99.99,,2013-10-06 16:53:00,
2013-10-06 12:22:00,48.0,38.0,-100.00,WNW,293,5.0,-999.0,67,-99.99,,,-99.99,,2013-10-06 17:22:00,
2013-10-06 12:52:00,49.0,38.0,-100.00,NW,315,5.0,-999.0,65,-99.99,,,-99.99,,2013-10-06 17:52:00,
2013-10-06 13:21:00,49.0,37.0,-100.00,NW,315,6.0,-999.0,63,-99.99,,,-99.99,,2013-10-06 18:21:00,
2013-10-06 13:52:00,51.0,38.0,-100.00,NW,315,5.0,-999.0,60,-99.99,,,-99.99,,2013-10-06 18:52:00,
2013-10-06 14:11:00,53.0,38.0,-100.00,NW,315,6.0,-999.0,57,-99.99,,,-99.99,,2013-10-06 19:11:00,
2013-10-06 14:22:00,52.0,37.0,-100.00,NW,315,7.0,-999.0,56,-99.99,,,-99.99,,2013-10-06 19:22:00,
2013-10-06 14:52:00,52.0,37.0,-100.00,NNW,338,6.0,-999.0,56,-99.99,,,-99.99,,2013-10-06 19:52:00,
2013-10-06 15:11:00,52.0,37.0,-100.00,NNW,338,5.0,-999.0,57,-99.99,,,-99.99,,2013-10-06 20:11:00,
2013-10-06 15:22:00,53.0,38.0,-100.00,WNW,293,4.0,-999.0,56,-99.99,,,-99.99,,2013-10-06 20:22:00,
2013-10-06 15:52:00,54.0,38.0,-100.00,NW,315,5.0,-999.0,54,-99.99,,,-99.99,,2013-10-06 20:52:00,
2013-10-06 16:22:00,55.0,38.0,-100.00,NW,315,4.0,-999.0,52,-99.99,,,-99.99,,2013-10-06 21:22:00,
2013-10-06 16:54:00,57.0,39.0,-100.00,NW,315,3.0,-999.0,50,-99.99,,,-99.99,,2013-10-06 21:54:00,
2013-10-06 17:24:00,62.0,37.0,-100.00,NNW,338,4.0,-999.0,39,-99.99,,,-99.99,,2013-10-06 22:24:00,
2013-10-06 17:54:00,62.0,-99.9,-100.00,NW,315,5.0,-999.0,30,-99.99,,,-99.99,,2013-10-06 22:54:00,
2013-10-06 18:22:00,62.0,-99.9,-100.00,NW,315,5.0,-999.0,24,-99.99,,,-99.99,,2013-10-06 23:22:00,
2013-10-06 18:53:00,60.0,-99.9,-100.00,NNW,338,5.0,-999.0,21,-99.99,,,-99.99,,2013-10-06 23:53:00,
2013-10-06 19:12:00,59.0,-99.9,-100.00,NW,315,4.0,-999.0,20,-99.99,,,-99.99,,2013-10-07 00:12:00,
2013-10-06 20:53:00,47.0,-99.9,-100.00,NW,315,2.0,-999.0,37,-99.99,,,-99.99,,2013-10-07 01:53:00,
2013-10-06 21:22:00,46.0,-99.9,-100.00,NW,315,3.0,-999.0,41,-99.99,,,-99.99,,2013-10-07 02:22:00,
2013-10-06 21:53:00,46.0,-99.9,-100.00,NNW,338,2.0,-999.0,41,-99.99,,,-99.99,,2013-10-07 02:53:00,
2013-10-06 22:22:00,43.0,-99.9,-100.00,WNW,293,2.0,-999.0,47,-99.99,,,-99.99,,2013-10-07 03:22:00,
2013-10-06 22:54:00,43.0,27.0,-100.00,NW,315,3.0,-999.0,53,-99.99,,,-99.99,,2013-10-07 03:54:00,
2013-10-06 23:24:00,44.0,27.0,-100.00,NW,315,3.0,-999.0,51,-99.99,,,-99.99,,2013-10-07 04:24:00,
2013-10-06 23:53:00,43.0,27.0,-100.00,WNW,293,2.0,-999.0,54,-99.99,,,-99.99,,2013-10-07 04:53:00,